Home > Weather > Scarborough > Past weeks

Flag for Trinidad and Tobago Weather for the Past 2 Weeks in Scarborough, Trinidad and Tobago

Now
82 °F

Sprinkles. Passing clouds.


Feels Like: 88 °F
Forecast: 80 / 85 °F
Wind: 16 mph from Southeast

Location: Crown Pt./ Scarborou

Current Time: Apr 30, 2016 at 3:54:50 PM

Latest Report: Apr 30, 2016 at 3:00 PM


Visibility: N/A

Pressure: 29.86 "Hg

Humidity: 74%

Dew Point: 73 °F

Location of ScarboroughLocation

Historic Weather in Scarborough — Graph

°F

Scarborough Temperature Yesterday

Maximum temperature yesterday: 86 °F (at 10:00 AM)
Minimum temperature yesterday: 81 °F (at 1:00 AM)
Average temperature yesterday: 83 °F

High & Low Weather Summary for the Past Weeks

 TemperatureHumidityPressure
High88 °F (Apr 21, 10:00 AM)94% (Apr 22, 10:00 AM)30.01 "Hg (Apr 22, 10:00 AM)
Low77 °F (Apr 22, 9:00 AM)59% (Apr 25, 3:00 PM)29.80 "Hg (Apr 25, 4:00 PM)
Average82 °F75%29.89 "Hg
* Reported Apr 15 3:00 PM — Apr 30 2:00 PM, Scarborough, Weather by CustomWeather, © 2016

Note: Actual official high and low records may vary slightly from our data, if they occured in-between our weather recording intervals... More about our weather records

Advertising

Scarborough Weather History for the Previous 24 Hours

Scroll right to see more
 ConditionsComfort  
Time TempWeatherWind HumidityBarometerVisibility
2:00 PM
Sat, Apr 30
84 °FSprinkles. Passing clouds.14 mph74%29.86 "HgN/A
1:00 PM84 °FPassing clouds.15 mph70%29.89 "HgN/A
12:00 PM82 °FPassing clouds.15 mph74%29.92 "HgN/A
10:00 AM84 °FPassing clouds.20 mph70%29.92 "HgN/A
9:00 AM84 °FPassing clouds.20 mph70%29.92 "HgN/A
8:00 AM82 °FScattered showers. Passing clouds.18 mph79%29.92 "HgN/A
7:00 AM81 °FScattered showers. Passing clouds.21 mph79%29.92 "HgN/A
6:00 AM81 °FScattered showers. Scattered clouds.20 mph79%29.89 "HgN/A
5:00 AM79 °FPassing clouds.15 mph84%29.86 "HgN/A
3:00 AM81 °FPassing clouds.16 mph74%29.86 "HgN/A
2:00 AM81 °FPassing clouds.15 mph79%29.89 "HgN/A
1:00 AM81 °FPassing clouds.13 mph79%29.92 "HgN/A
12:00 AM81 °FPassing clouds.12 mph79%29.92 "HgN/A
11:00 PM
Fri, Apr 29
82 °FPassing clouds.14 mph74%29.95 "HgN/A
10:00 PM81 °FPassing clouds.8 mph79%29.95 "HgN/A
9:00 PM81 °FPassing clouds.12 mph74%29.92 "HgN/A
8:00 PM81 °FPassing clouds.14 mph74%29.92 "HgN/A
7:00 PM82 °FPassing clouds.13 mph70%29.89 "HgN/A
6:00 PM82 °FPassing clouds.15 mph70%29.86 "HgN/A
5:00 PM84 °FPassing clouds.16 mph70%29.86 "HgN/A
4:00 PM86 °FPassing clouds.18 mph66%29.83 "HgN/A
3:00 PM86 °FPassing clouds.20 mph66%29.83 "HgN/A
Weather by CustomWeather, © 2016

See weather overviewHow to use our weather pages